Погода в Ленинкенте

Россия / Республика Дагестан     42°58′13″N   47°21′12″E
темп.,
°C
ветер,
м/с
пор.,
м/с
влажн.,
%
обл.,
%
осадки,
мм/ч
давл.,
гПа
погр.,
м
13 июня, вс
вс1300:00+20вюв1165100 0.0 101116
03:00+20ююв2267100 0.0 101124
06:00+21ююв2364100 0.0 1010149
09:00+26всв134698 0.4 10091012
12:00+28ссв544112 0.1 10091701
15:00+28с554383 0.1 10091697
18:00+22сз81070100 0.2 1011615
21:00+20сз4779100 0.2 1012302
14 июня, пн
пн1400:00+19сз5886100 0.0 1012283
03:00+18сз36908 0.0 1011164
06:00+20сз35710 0.0 1012285
09:00+23ссз56610 0.0 1012926
12:00+27ссз55450 0.0 10101300
15:00+29ссв44380 0.0 10091713
18:00+25в33560 0.0 1010382
21:00+22св00700 0.0 101023
15 июня, вт
вт1500:00+21ююз22680 0.0 101012
03:00+21ююз22680 0.0 100811
06:00+23юв12580 0.0 1008146
09:00+28в344822 0.0 10071115
12:00+30в444089 0.0 10061379
15:00+30всв64423 0.0 10071011
18:00+27всв32490 0.1 1009494
21:00+23вюв22610 0.1 100925
16 июня, ср
ср1600:00+22ююв11670 0.0 100813
03:00+22юв22680 0.0 100815
06:00+25юв33580 0.0 1008156
09:00+29вюв78400 0.0 1006794
12:00+31вюв78360 0.0 1005881
15:00+31вюв66370 0.0 1004730
18:00+28в43470 0.0 1005342
21:00+22сз22700 0.0 100740
17 июня, чт
чт1700:00+22сз23680 0.0 100860
03:00+22ссз23730 0.0 100862
06:00+24сз23700 0.0 1008220
09:00+28с23530 0.0 1008923
12:00+32в66410 0.0 10061449
15:00+31в54450 0.0 1005988
18:00+29ссв22510 0.1 1007381
21:00+25з34690 2.1 100960